Dunkirk, NY

12:09 PM EDT on July 26, 2017 (GMT -0400)
Chautauqua County-Dunkirk

Weather History for KDKK - March, 2013

Change the Weather History Date:

Wednesday, March 27, 2013

  Actual Average Record
Temperature  
Mean Temperature 34 °F -  
Max Temperature 36 °F 48 °F 77 °F (1989)
Min Temperature 32 °F 29 °F 12 °F (1982)
Degree Days  
Heating Degree Days 32    
Moisture  
Dew Point 29 °F    
Average Humidity 83    
Maximum Humidity 96    
Minimum Humidity 75    
Precipitation  
Precipitation 0.01 in - - ()
Sea Level Pressure  
Sea Level Pressure 30.07 in    
Wind  
Wind Speed 14 mph (WSW)    
Max Wind Speed 21 mph    
Max Gust Speed 34 mph    
Visibility 6 miles    
Events Snow    
Averages and records for this station are not official NWS values.
T = Trace of Precipitation, MM = Missing Value Source: NWS Daily Summary

Daily Weather History Graph

Daily Weather History Graph

Search for Another Location

Airport or City:

Trip Planner

Search our weather history database for the weather conditions in past years. The results will help you decide how hot, cold, wet, or windy it might be!

Date:

Astronomy

Mar. 27, 2013 Rise Set
Actual Time 7:07 AM EDT 7:37 PM EDT
Civil Twilight 6:39 AM EDT 8:05 PM EDT
Nautical Twilight 6:06 AM EDT 8:39 PM EDT
Astronomical Twilight 5:32 AM EDT 9:13 PM EDT
Moon 8:21 PM EDT (3/27) 6:56 AM EDT (3/27)
Length of Visible Light 13h 26m
Length of Day
12h 29m
Full, 100% of the Moon is Illuminated
Mar 27
Full
Apr 3
Last Quarter
Apr 10
New
Apr 18
First Quarter
Apr 25
Full

Hourly Weather History & Observations

Time (EDT) Temp. Windchill Dew Point Humidity Pressure Visibility Wind Dir Wind Speed Gust Speed Precip Events Conditions
12:53 AM 34.0 °F 25.0 °F 27.0 °F 75% 30.02 in 10.0 mi WSW 12.7 mph - N/A   Partly Cloudy
1:53 AM 32.0 °F 24.2 °F 27.0 °F 82% 30.02 in 10.0 mi SW 9.2 mph - N/A   Clear
2:53 AM 32.0 °F 23.6 °F 26.1 °F 79% 30.01 in 10.0 mi SW 10.4 mph - N/A   Overcast
3:53 AM 33.1 °F 25.5 °F 27.0 °F 78% 30.01 in 10.0 mi SW 9.2 mph - N/A   Overcast
4:53 AM 33.1 °F 24.4 °F 28.0 °F 82% 30.01 in 10.0 mi WSW 11.5 mph - N/A   Overcast
5:53 AM 33.1 °F 23.9 °F 28.0 °F 82% 30.01 in 10.0 mi WSW 12.7 mph 23.0 mph N/A   Overcast
6:53 AM 33.1 °F 25.5 °F 28.0 °F 82% 30.03 in 10.0 mi WSW 9.2 mph 18.4 mph N/A   Overcast
7:53 AM 34.0 °F 25.5 °F 28.0 °F 79% 30.04 in 10.0 mi WSW 11.5 mph - N/A   Overcast
8:53 AM 35.1 °F 25.9 °F 30.0 °F 82% 30.06 in 10.0 mi WSW 13.8 mph - N/A   Overcast
9:53 AM 35.1 °F 25.5 °F 28.0 °F 76% 30.06 in 10.0 mi WSW 15.0 mph 23.0 mph N/A   Overcast
10:21 AM 35.6 °F 26.2 °F 28.4 °F 75% 30.05 in 9.0 mi WSW 15.0 mph 21.9 mph 0.00 in   Overcast
10:48 AM 33.8 °F 22.8 °F 28.4 °F 81% 30.05 in 1.8 mi WSW 18.4 mph 24.2 mph 0.00 in Snow Light Snow
10:53 AM 34.0 °F 23.8 °F 28.9 °F 82% 30.07 in 1.0 mi WSW 16.1 mph 24.2 mph 0.00 in Snow Light Snow
11:02 AM 33.8 °F 22.5 °F 28.4 °F 81% 30.05 in 1.2 mi WSW 19.6 mph 26.5 mph 0.00 in Snow Light Snow
11:06 AM 33.8 °F 23.5 °F 28.4 °F 81% 30.05 in 0.8 mi WSW 16.1 mph 26.5 mph 0.00 in Snow Light Snow
11:15 AM 33.8 °F 24.3 °F 28.4 °F 81% 30.05 in 1.0 mi WSW 13.8 mph 23.0 mph 0.00 in Snow Light Snow
11:18 AM 33.8 °F 23.5 °F 30.2 °F 87% 30.05 in 2.0 mi WSW 16.1 mph 20.7 mph 0.00 in Snow Light Snow
11:26 AM 35.6 °F 26.2 °F 30.2 °F 81% 30.05 in 9.0 mi SW 15.0 mph 21.9 mph 0.00 in   Overcast
11:53 AM 35.1 °F 23.8 °F 28.9 °F 78% 30.08 in 10.0 mi WSW 20.7 mph 26.5 mph 0.00 in   Overcast
12:53 PM 35.1 °F 25.5 °F 28.0 °F 76% 30.09 in 10.0 mi WSW 15.0 mph 28.8 mph 0.00 in   Overcast
1:08 PM 33.8 °F 23.2 °F 28.4 °F 81% 30.07 in 1.8 mi WSW 17.3 mph 28.8 mph 0.00 in Snow Light Snow
1:13 PM 33.8 °F 22.2 °F 28.4 °F 81% 30.07 in 0.8 mi WSW 20.7 mph 28.8 mph 0.00 in Snow Light Snow
1:24 PM 33.8 °F 23.5 °F 30.2 °F 87% 30.07 in 1.0 mi WSW 16.1 mph 23.0 mph 0.00 in Snow Light Snow
1:28 PM 33.8 °F 23.5 °F 30.2 °F 87% 30.07 in 2.0 mi WSW 16.1 mph 23.0 mph 0.00 in Snow Light Snow
1:36 PM 33.8 °F 22.5 °F 28.4 °F 81% 30.07 in 8.0 mi WSW 19.6 mph 31.1 mph 0.00 in Snow Light Snow
1:53 PM 34.0 °F 23.0 °F 28.9 °F 82% 30.10 in 10.0 mi WSW 18.4 mph 34.5 mph 0.00 in   Overcast
2:14 PM 33.8 °F 23.5 °F 28.4 °F 81% 30.08 in 10.0 mi WSW 16.1 mph 28.8 mph N/A   Overcast
2:53 PM 34.0 °F 22.7 °F 28.0 °F 79% 30.10 in 10.0 mi WSW 19.6 mph 31.1 mph N/A   Overcast
3:53 PM 34.0 °F 23.0 °F 28.9 °F 82% 30.09 in 8.0 mi WSW 18.4 mph 26.5 mph 0.00 in Snow Light Snow
4:10 PM 33.8 °F 23.2 °F 30.2 °F 87% 30.07 in 2.5 mi WSW 17.3 mph 27.6 mph 0.00 in Snow Light Snow
4:15 PM 33.8 °F 24.3 °F 30.2 °F 87% 30.07 in 3.0 mi WSW 13.8 mph 27.6 mph 0.00 in Snow Light Snow
4:48 PM 33.8 °F 23.2 °F 28.4 °F 81% 30.07 in 10.0 mi WSW 17.3 mph 28.8 mph 0.00 in   Mostly Cloudy
4:53 PM 34.0 °F 23.4 °F 28.9 °F 82% 30.09 in 10.0 mi WSW 17.3 mph 28.8 mph 0.00 in   Overcast
5:02 PM 35.6 °F 25.9 °F 28.4 °F 75% 30.07 in 10.0 mi WSW 16.1 mph 26.5 mph N/A   Mostly Cloudy
5:53 PM 35.1 °F 25.9 °F 28.0 °F 76% 30.10 in 10.0 mi WSW 13.8 mph 28.8 mph N/A   Mostly Cloudy
6:14 PM 35.6 °F 26.6 °F 28.4 °F 75% 30.08 in 10.0 mi WSW 13.8 mph 25.3 mph N/A   Overcast
6:36 PM 33.8 °F 24.8 °F 28.4 °F 81% 30.08 in 1.8 mi WSW 12.7 mph 25.3 mph 0.00 in Snow Light Snow
6:53 PM 33.1 °F 22.2 °F 30.0 °F 89% 30.11 in 1.0 mi WSW 17.3 mph 23.0 mph 0.00 in Snow Light Snow
7:01 PM 33.8 °F 24.3 °F 30.2 °F 87% 30.09 in 0.8 mi WSW 13.8 mph 26.5 mph 0.00 in Snow Light Snow
7:07 PM 33.8 °F 24.3 °F 30.2 °F 87% 30.09 in 1.2 mi WSW 13.8 mph - 0.00 in Snow Light Snow
7:11 PM 33.8 °F 24.3 °F 30.2 °F 87% 30.09 in 2.0 mi SW 13.8 mph - 0.00 in Snow Light Snow
7:53 PM 33.1 °F 24.4 °F 30.0 °F 89% 30.12 in 1.8 mi WSW 11.5 mph - 0.00 in Snow Light Snow
8:08 PM 33.8 °F 23.9 °F 30.2 °F 87% 30.09 in 1.8 mi WSW 15.0 mph 20.7 mph 0.00 in Snow Light Snow
8:16 PM 33.8 °F 24.3 °F 30.2 °F 87% 30.09 in 2.5 mi WSW 13.8 mph - 0.00 in Snow Light Snow
8:27 PM 33.8 °F 24.8 °F 30.2 °F 87% 30.09 in 3.0 mi WSW 12.7 mph - 0.00 in Snow Light Snow
8:53 PM 33.1 °F 24.4 °F 30.9 °F 92% 30.12 in 4.0 mi WSW 11.5 mph - 0.00 in Snow Light Snow
9:19 PM 33.8 °F 27.0 °F 30.2 °F 87% 30.10 in 4.0 mi West 8.1 mph - 0.00 in Snow Light Snow
9:34 PM 33.8 °F 26.4 °F 30.2 °F 87% 30.10 in 2.0 mi WSW 9.2 mph - 0.00 in Snow Light Snow
9:53 PM 33.1 °F 25.5 °F 30.9 °F 92% 30.12 in 1.5 mi WSW 9.2 mph - 0.00 in Snow Light Snow
10:50 PM 33.8 °F 25.3 °F 30.2 °F 87% 30.09 in 2.0 mi WSW 11.5 mph - 0.01 in Snow Light Snow
10:53 PM 33.1 °F 25.5 °F 30.9 °F 92% 30.11 in 2.5 mi WSW 9.2 mph - 0.01 in Snow Light Snow
11:18 PM 32.0 °F 24.8 °F 30.2 °F 93% 30.09 in 2.5 mi WSW 8.1 mph - 0.00 in Snow Light Snow
11:53 PM 32.0 °F 24.2 °F 30.9 °F 96% 30.11 in 1.8 mi West 9.2 mph - 0.00 in Snow Light Snow